Location: Amherst
(42.5000°N, 72.5000°W)
Time: 09:58:57
(UTC-04:00)

ISS - Pass Details

Date: 19 May 2018
Orbit: 402 x 407 km, 51.6° (Epoch: 23 May)

Event Time Altitude Azimuth Distance (km) Brightness Sun altitude
Exits shadow 02:40:32 - 303° (WNW) 2,371 0.1 -22.4°
Rises 02:40:40 0° 304° (NW) 2,319 0.1 -22.4°
Reaches altitude 10° 02:43:11 10° 323° (NW) 1,458 -0.7 -22.2°
Maximum altitude 02:45:35 19° 11° (N) 1,049 -0.9 -21.9°
Drops below altitude 10° 02:47:58 10° 58° (ENE) 1,457 -0.1 -21.7°
Sets 02:50:29 0° 78° (ENE) 2,315 0.7 -21.5°
